Location: Unspecified
(0.0000°N, 0.0000°E)
Time: 07:53:05
(UTC+00:00)

Tiros 1 - All Passes

Search period start: 28 May 2018 00:00
Search period end: 07 June 2018 00:00
Orbit: 630 x 665 km, 48.4° (Epoch: 27 May)

Date Brightness Start Highest point End Pass type
(mag) Time Alt. Az. Time Alt. Az. Time Alt. Az.
28 May - 01:18:33 10° WSW 01:22:35 28° NW 01:26:39 10° N night (unlit)
28 May - 11:49:18 10° NNW 11:53:43 40° NE 11:58:05 10° ESE daylight
28 May - 13:32:58 10° W 13:35:45 16° SW 13:38:32 10° SSW daylight
29 May - 00:01:56 10° SW 00:06:39 76° SE 00:11:22 10° NE night (unlit)
29 May - 10:36:17 10° NNE 10:37:40 11° NE 10:39:03 10° ENE daylight
29 May - 12:15:09 10° NW 12:19:47 57° SW 12:24:22 10° SSE daylight
29 May - 22:47:15 10° S 22:50:42 20° SE 22:54:08 10° E night (unlit)
30 May - 00:28:33 10° WSW 00:32:43 31° NW 00:36:55 10° NNE night (unlit)
30 May - 10:59:31 10° NNW 11:03:51 36° NE 11:08:08 10° ESE daylight
30 May - 12:42:45 10° W 12:45:53 18° SW 12:49:00 10° S daylight
30 May - 23:12:07 10° SSW 23:16:47 67° SE 23:21:28 10° NE night (unlit)
31 May - 11:25:14 10° NW 11:29:55 66° SW 11:34:34 10° SSE daylight
31 May - 21:57:40 10° S 22:00:49 18° SE 22:03:59 10° E night (unlit)
31 May - 23:38:35 10° WSW 23:42:51 35° NW 23:47:10 10° NNE night (unlit)
01 Jun - 10:09:46 10° NNW 10:13:58 32° NE 10:18:10 10° ESE daylight
01 Jun - 11:52:35 10° W 11:56:01 20° SW 11:59:26 10° S daylight
01 Jun - 22:22:19 10° SSW 22:26:55 58° SE 22:31:33 10° NE night (unlit)
02 Jun - 00:07:45 10° WNW 00:09:01 11° NW 00:10:18 10° NNW night (unlit)
02 Jun - 10:35:19 10° NW 10:40:03 75° SW 10:44:45 10° SE daylight
02 Jun - 21:08:08 10° SSE 21:10:57 16° SE 21:13:47 10° E night (unlit)
02 Jun - 22:48:37 10° WSW 22:53:00 39° NW 22:57:23 10° NNE night (unlit)
03 Jun - 09:20:01 10° N 09:24:07 28° NE 09:28:10 10° ESE daylight
03 Jun - 11:02:27 10° WNW 11:06:08 22° SW 11:09:48 10° S daylight
03 Jun - 21:32:32 10° SSW 21:37:04 51° SE 21:41:37 10° NE night (unlit)
03 Jun - 23:17:12 10° WNW 23:19:08 12° NW 23:21:06 10° NNW night (unlit)
04 Jun - 09:45:26 10° NW 09:50:11 85° SW 09:54:55 10° SE daylight
04 Jun - 20:18:41 10° SSE 20:21:05 14° SE 20:23:29 10° E night (unlit)
04 Jun - 21:58:41 10° WSW 22:03:07 45° NW 22:07:36 10° NNE night (unlit)
05 Jun - 08:30:18 10° N 08:34:14 25° NE 08:38:08 10° ESE daylight
05 Jun - 10:12:22 10° WNW 10:16:16 25° SW 10:20:09 10° S daylight
05 Jun - 20:42:46 10° SSW 20:47:12 45° SE 20:51:40 10° NE night (unlit)
05 Jun - 22:26:51 10° W 22:29:16 14° NW 22:31:42 10° NNW night (unlit)
06 Jun - 08:55:33 10° NW 09:00:19 85° NE 09:05:04 10° SE daylight
06 Jun - 19:29:20 10° SSE 19:31:13 12° SE 19:33:05 10° ESE night (unlit)
06 Jun - 21:08:46 10° SW 21:13:16 51° NW 21:17:48 10° NNE night (unlit)
